| time (UTC) | temp C | wind direction | speed KPH | gust KPH | rain 1hr cm | rain 24hr cm | rain mn cm | humidity % | barometer mb |
| 20260505051535 | 9 | 208 | 17.7 | 40.2 | 0.00 | 0.51 | 0.00 | 78 | 1007.2 |
| 20260505041511 | 10 | 204 | 19.3 | 38.6 | 0.00 | 0.61 | 0.00 | 77 | 1006.3 |
| 20260505040010 | 10 | 219 | 17.7 | 33.8 | 0.00 | 0.61 | 0.00 | 77 | 1006.2 |
| 20260505034507 | 10 | 216 | 17.7 | 37.0 | 0.00 | 0.64 | 0.00 | 76 | 1006.0 |
| 20260505033007 | 10 | 210 | 20.9 | 32.2 | 0.00 | 0.64 | 0.00 | 76 | 1006.0 |
| 20260505031508 | 10 | 250 | 17.7 | 38.6 | 0.00 | 0.64 | 0.00 | 75 | 1005.8 |
| 20260505030107 | 10 | 209 | 20.9 | 33.8 | 0.00 | 0.64 | 0.00 | 74 | 1005.5 |
| 20260505024607 | 11 | 221 | 19.3 | 30.6 | 0.00 | 0.66 | 0.64 | 74 | 1005.3 |
| 20260505023059 | 11 | 197 | 17.7 | 35.4 | 0.00 | 0.66 | 0.64 | 73 | 1005.2 |
| 20260505021558 | 11 | 229 | 19.3 | 32.2 | 0.00 | 0.66 | 0.64 | 72 | 1005.1 |
| 20260505014552 | 11 | 206 | 17.7 | 40.2 | 0.00 | 0.69 | 0.64 | 71 | 1004.8 |
| 20260505013050 | 11 | 224 | 12.9 | 24.1 | 0.00 | 0.69 | 0.64 | 70 | 1004.9 |
| 20260505011550 | 10 | 218 | 12.9 | 22.5 | 0.00 | 0.69 | 0.64 | 71 | 1004.9 |
| 20260505010107 | 10 | 226 | 14.5 | 25.7 | 0.00 | 0.69 | 0.64 | 72 | 1004.9 |
| 20260505004548 | 10 | 196 | 12.9 | 29.0 | 0.00 | 0.76 | 0.64 | 73 | 1004.7 |
| 20260505003050 | 10 | 238 | 14.5 | 33.8 | 0.00 | 0.76 | 0.64 | 71 | 1004.8 |
| 20260505001547 | 10 | 236 | 16.1 | 29.0 | 0.00 | 0.76 | 0.64 | 72 | 1004.7 |
| 20260505000052 | 10 | 238 | 17.7 | 33.8 | 0.00 | 0.76 | 0.64 | 70 | 1004.4 |
| 20260504234543 | 10 | 236 | 20.9 | 40.2 | 0.00 | 1.04 | 0.64 | 64 | 1004.1 |
| 20260504233049 | 11 | 220 | 17.7 | 32.2 | 0.00 | 1.04 | 0.64 | 58 | 1003.3 |
| 20260504231539 | 11 | 202 | 17.7 | 35.4 | 0.00 | 1.04 | 0.64 | 58 | 1002.8 |
| 20260504230053 | 11 | 234 | 14.5 | 32.2 | 0.00 | 1.04 | 0.64 | 58 | 1002.7 |
| 20260504224556 | 11 | 229 | 14.5 | 33.8 | 0.00 | 1.37 | 0.64 | 59 | 1002.7 |
| 20260504223037 | 11 | 225 | 14.5 | 32.2 | 0.00 | 1.37 | 0.64 | 60 | 1002.7 |
| 20260504221535 | 11 | 214 | 19.3 | 37.0 | 0.00 | 1.37 | 0.64 | 61 | 1002.4 |
| 20260504220032 | 11 | 218 | 14.5 | 33.8 | 0.00 | 1.37 | 0.64 | 62 | 1002.4 |
| 20260504214540 | 11 | 228 | 17.7 | 35.4 | 0.00 | 1.65 | 0.64 | 64 | 1002.3 |
| 20260504213030 | 11 | 235 | 14.5 | 29.0 | 0.00 | 1.65 | 0.64 | 65 | 1002.2 |
| 20260504211529 | 11 | 307 | 17.7 | 33.8 | 0.00 | 1.65 | 0.64 | 66 | 1002.2 |
| 20260504210029 | 11 | 234 | 17.7 | 32.2 | 0.00 | 1.65 | 0.64 | 66 | 1002.1 |
| 20260504204525 | 11 | 236 | 11.3 | 30.6 | 0.00 | 1.85 | 0.64 | 67 | 1002.0 |
| 20260504203024 | 11 | 260 | 19.3 | 40.2 | 0.00 | 1.85 | 0.64 | 65 | 1001.8 |
| 20260504201523 | 11 | 213 | 20.9 | 40.2 | 0.00 | 1.85 | 0.64 | 63 | 1001.7 |
| 20260504200021 | 11 | 300 | 24.1 | 48.3 | 0.00 | 1.85 | 0.64 | 63 | 1001.4 |
| 20260504194516 | 11 | 266 | 19.3 | 38.6 | 0.00 | 1.93 | 0.64 | 69 | 1001.3 |
| 20260504193014 | 10 | 240 | 19.3 | 45.1 | 0.00 | 1.93 | 0.64 | 70 | 1000.6 |
| 20260504191514 | 10 | 280 | 22.5 | 48.3 | 0.00 | 1.93 | 0.64 | 73 | 1000.3 |
| 20260504190011 | 10 | 279 | 20.9 | 49.9 | 0.00 | 1.93 | 0.64 | 73 | 1000.0 |
| 20260504184505 | 10 | 246 | 19.3 | 40.2 | 0.00 | 2.01 | 0.64 | 75 | 999.9 |
| 20260504183002 | 10 | 255 | 19.3 | 40.2 | 0.00 | 2.01 | 0.64 | 78 | 999.7 |
| 20260504181602 | 8 | 238 | 22.5 | 41.8 | 0.00 | 2.01 | 0.64 | 80 | 999.5 |
| 20260504180055 | 8 | 279 | 17.7 | 43.5 | 0.00 | 2.01 | 0.64 | 82 | 999.2 |
| 20260504174556 | 7 | 240 | 20.9 | 46.7 | 0.00 | 2.01 | 0.64 | 83 | 999.1 |
| 20260504173048 | 7 | 265 | 17.7 | 49.9 | 0.00 | 2.01 | 0.64 | 85 | 998.7 |
| 20260504171545 | 7 | 267 | 27.4 | 49.9 | 0.00 | 2.01 | 0.64 | 85 | 998.4 |
| 20260504120114 | 3 | 229 | 25.7 | 51.5 | 0.05 | 1.75 | 0.38 | 93 | 989.5 |
| 20260504081505 | 3 | 236 | 27.4 | 48.3 | 0.03 | 1.65 | 0.30 | 96 | 978.5 |